Notices

What's New in latest Release from April 7th, 2021:

- Updated Glossary, including Speed of Maximum Gust, and Total Hourly Precipitation

- Updated national and regional climate services offices contacts and prices information

- Addition of station inventory lists for 1981-2010, 1971-2000, and 1961-1990 Normals.

If you haven't already, please take our survey and provide feedback about our website: https://eccc.sondage-survey.ca/f/LanguageSelection.aspx?s=442ca660-fcf1-47c0-95a9-59707d6fd709

Hourly Data Report for September 14, 2018

TORONTO CITY
ONTARIO
Current Station Operator: ECCC - MSC

43°40'00.000" N
79°24'00.000" W
112.50 m
6158355
71508
XTO

Download Data

Hourly Data (September 2018)
Hourly Data Report for September 14, 2018
TIME
LST
Temp Definition
°C
Dew Point Definition
°C
Rel Hum Definition
%
Precip. Amount Definition
mm

Wind Dir Definition
10's deg

Wind Spd Definition
km/h
Visibility Definition
km
Stn Press Definition
kPa
Hmdx Definition


Wind Chill Definition


Weather Definition


00:00 21.5 15.7 69 0.0 LegendMM LegendMM   100.85 26   LegendNANA
01:00 21.4 16.0 72 0.0 LegendMM LegendMM   100.82 26   LegendNANA
02:00 21.5 16.4 73 0.0 LegendMM LegendMM   100.81 26   LegendNANA
03:00 21.2 16.9 77 0.0 LegendMM LegendMM   100.82 26   LegendNANA
04:00 21.0 17.5 81 0.0 LegendMM LegendMM   100.81 27   LegendNANA
05:00 20.8 17.7 82 0.0 LegendMM LegendMM   100.83 27   LegendNANA
06:00 20.6 17.8 84 0.0 LegendMM LegendMM   100.86 26   LegendNANA
07:00 20.9 18.3 85 0.0 LegendMM LegendMM   100.88 27   LegendNANA
08:00 22.0 18.9 83 0.0 LegendMM LegendMM   100.85 29   LegendNANA
09:00 23.8 19.0 75 0.0 LegendMM LegendMM   100.84 31   LegendNANA
10:00 24.9 18.8 69 0.0 LegendMM LegendMM   100.84 32   LegendNANA
11:00 25.7 18.8 66 0.0 LegendMM LegendMM   100.82 32   LegendNANA
12:00 26.5 17.9 59 0.0 LegendMM LegendMM   100.81 32   LegendNANA
13:00 26.4 18.0 60 0.0 LegendMM LegendMM   100.78 32   LegendNANA
14:00 27.3 18.6 59 0.0 LegendMM LegendMM   100.72 34   LegendNANA
15:00 26.8 18.5 60 0.0 LegendMM LegendMM   100.68 33   LegendNANA
16:00 25.4 18.5 66 0.0 LegendMM LegendMM   100.67 32   LegendNANA
17:00 24.7 18.4 68 0.0 LegendMM LegendMM   100.67 31   LegendNANA
18:00 24.0 18.2 70 0.0 LegendMM LegendMM   100.67 30   LegendNANA
19:00 23.4 18.1 72 0.0 LegendMM LegendMM   100.68 29   LegendNANA
20:00 23.4 18.3 73 0.0 LegendMM LegendMM   100.70 30   LegendNANA
21:00 23.2 18.5 75 0.0 LegendMM LegendMM   100.71 30   LegendNANA
22:00 22.3 18.1 77 0.0 LegendMM LegendMM   100.73 28   LegendNANA
23:00 22.6 18.9 80 0.0 LegendMM LegendMM   100.74 29   LegendNANA

Notes on Data Quality.

Legend

  • E = Estimated
  • M = Missing
  • NA = Not Available*
  • [empty] = Indicates an unobserved value
Date modified: